TimeMST,TemperatureF,Dew PointF,Humidity,Sea Level PressureIn,VisibilityMPH,Wind Direction,Wind SpeedMPH,Gust SpeedMPH,PrecipitationIn,Events,Conditions,WindDirDegrees,DateUTC
12:53 AM,10.9,8.1,88,29.90,10.0,Calm,Calm,-,N/A,,Clear,0,2013-01-12 07:53:00
1:53 AM,15.1,10.9,84,29.92,10.0,East,4.6,-,N/A,,Clear,80,2013-01-12 08:53:00
2:53 AM,10.9,7.0,84,29.96,10.0,ENE,3.5,-,N/A,,Clear,70,2013-01-12 09:53:00
3:53 AM,10.0,7.0,87,29.96,10.0,Calm,Calm,-,N/A,,Clear,0,2013-01-12 10:53:00
4:53 AM,9.0,3.9,80,29.99,10.0,Calm,Calm,-,N/A,,Clear,0,2013-01-12 11:53:00
5:53 AM,6.1,1.9,83,30.03,10.0,Calm,Calm,-,N/A,,Clear,0,2013-01-12 12:53:00
6:53 AM,1.9,-2.0,83,30.10,10.0,Calm,Calm,-,N/A,,Clear,0,2013-01-12 13:53:00
7:53 AM,6.1,1.9,83,30.15,10.0,Calm,Calm,-,N/A,,Clear,0,2013-01-12 14:53:00
8:53 AM,14.0,8.1,77,30.14,10.0,East,4.6,-,N/A,,Clear,90,2013-01-12 15:53:00
9:53 AM,18.0,7.0,62,30.15,10.0,East,6.9,-,N/A,,Clear,80,2013-01-12 16:53:00
10:53 AM,19.9,5.0,52,30.12,10.0,ENE,9.2,-,N/A,,Clear,60,2013-01-12 17:53:00
11:53 AM,23.0,6.1,48,30.09,10.0,North,9.2,-,N/A,,Clear,10,2013-01-12 18:53:00
12:53 PM,26.1,6.1,43,30.06,10.0,North,10.4,16.1,N/A,,Clear,10,2013-01-12 19:53:00
1:53 PM,26.1,5.0,41,30.04,10.0,Variable,4.6,-,N/A,,Clear,0,2013-01-12 20:53:00
2:53 PM,27.0,5.0,39,30.06,10.0,North,5.8,-,N/A,,Clear,360,2013-01-12 21:53:00
3:53 PM,27.0,5.0,39,30.06,10.0,NNE,8.1,-,N/A,,Clear,20,2013-01-12 22:53:00
4:53 PM,21.9,5.0,48,30.09,10.0,NNE,6.9,-,N/A,,Clear,20,2013-01-12 23:53:00
6:53 PM,14.0,3.0,62,30.18,10.0,NE,5.8,-,N/A,,Clear,50,2013-01-13 01:53:00
7:53 PM,14.0,3.0,62,30.19,10.0,NE,5.8,-,N/A,,Clear,50,2013-01-13 02:53:00
8:53 PM,14.0,3.9,64,30.19,10.0,NE,4.6,-,N/A,,Overcast,40,2013-01-13 03:53:00
9:53 PM,12.9,3.9,67,30.19,10.0,NE,10.4,-,N/A,,Clear,50,2013-01-13 04:53:00
10:53 PM,10.9,3.9,73,30.20,10.0,ENE,4.6,-,N/A,,Mostly Cloudy,60,2013-01-13 05:53:00
11:53 PM,10.9,3.9,73,30.19,10.0,ENE,4.6,-,N/A,,Overcast,70,2013-01-13 06:53:00